Simultaneous Nadir Overpasses (SNOs) Predictions

Prediction of SNOs near equator between AQUA and NPP Satellite Orbit:

Table of predicted SNOs near equator for the next 14.0 days since TLE Epoch: 3/24/2012
Index Date (AQUA) Time (AQUA) AQUA Lat,Lon Date (NPP) Time (NPP) NPP Lat,Lon Distance(km) Time Diff (sec)
1 03/26/2012 00:58:41 -4.59, 8.57 03/26/2012 00:49:08 -4.48, 8.02 62.66 573
2 03/26/2012 01:46:57 0.06, 177.16 03/26/2012 01:38:39 -0.11, 176.34 92.97 498
3 03/28/2012 17:14:55 -3.42, 124.69 03/28/2012 17:05:42 -3.25, 124.06 72.26 553
4 03/31/2012 08:46:01 17.62, 69.79 03/31/2012 08:36:01 17.66, 69.19 63.99 600
5 03/31/2012 09:31:07 -2.14,-119.17 03/31/2012 09:22:15 -1.97,-119.89 81.85 532
6 04/03/2012 00:59:11 5.39,-171.65 04/03/2012 00:49:25 5.28,-172.19 60.94 586
7 04/03/2012 01:47:17 -0.78, -3.01 04/03/2012 01:38:47 -0.64, -3.82 91.61 510
8 04/05/2012 17:15:20 4.05, -55.49 04/05/2012 17:05:56 3.94, -56.12 70.97 564




NCC Satellite Simultaneous Nadir Overpasses (SNOs) Prediction Service
